Tracking 29781 objects as of 15-Oct-2024
HD Live streaming from Space Station
objects crossing your sky now

DELTA 1 DEB

Track DELTA 1 DEB now!
10-day predictions


NORAD ID: 21497
Int'l Code: 1975-052FS
Perigee: 1,098.3 km
Apogee: 1,187.7 km
Inclination: 100.0 °
Period: 108.0 minutes
Semi major axis: 7513 km
RCS: 0.0605 m2 (small)
Launch date: June 12, 1975
Source: United States (US)
Launch site: AIR FORCE WESTERN TEST RANGE (AFWTR)

Note: This is SATELLITE DEBRIS
Your satellite tracking list
Your tracking list is empty




NASA's NSSDC Master Catalog

Two Line Element Set (TLE):
1 21497U 75052FS  24288.32502154  .00000116  00000-0  32259-3 0  9990
2 21497  99.9810 221.6281 0059466  22.4292 129.3158 13.32898050626613
Source of the keplerian elements: AFSPC